Back to Top

Language: 

My Weather Underground Personal Weather Station Historical Data with Graphs...

Delerius Weather Station Historical Data
Daily Summary for January 5, 2016 Units:  Metric    English   Both
« Previous Day
Next Day »
Daily Weekly Monthly Yearly Custom
  High: Low: Average:
Temperature: 7.3 °C 6.3 °C 6.7 °C
Dew Point: 7.1 °C 6.1 °C 6.5 °C
Humidity: 99 % 98 % 99 %
Wind Speed: 11.3 km/h 0 km/h 3.5 km/h
Wind Gust: 16.1 km/h - -
Wind:- - ESE
Pressure: 990.4 hPa 979.9 hPa -
Precipitation: 3.05 mm    
Historical Graphs
 
 
Tabular Data for January 5, 2016
Time Temperature Dew Point Pressure Wind Wind Speed Wind Gust Humidity Rainfall Rate (Hourly) solar Conditions
00:00 6.4 °C 6.2 °C 979.9 hPa ESE 6.4 km/h 9.7 km/h 98 % 1.78 mm 0 W/m2
00:05 6.4 °C 6.2 °C 980.2 hPa ESE 6.4 km/h 9.7 km/h 98 % 1.78 mm 0 W/m2
00:15 6.4 °C 6.1 °C 979.9 hPa ESE 8 km/h 11.3 km/h 98 % 1.78 mm 0 W/m2
00:20 6.3 °C 6.1 °C 980.2 hPa ESE 6.4 km/h 9.7 km/h 98 % 1.52 mm 0 W/m2
00:25 6.3 °C 6.1 °C 980.2 hPa SE 8 km/h 9.7 km/h 98 % 2.54 mm 0 W/m2
00:30 6.3 °C 6.1 °C 979.9 hPa ESE 9.7 km/h 9.7 km/h 98 % 2.29 mm 0 W/m2
00:35 6.3 °C 6.1 °C 979.9 hPa ESE 8 km/h 14.5 km/h 98 % 2.29 mm 0 W/m2
00:40 6.3 °C 6.1 °C 979.9 hPa East 8 km/h 8 km/h 98 % 1.27 mm 0 W/m2
00:55 6.3 °C 6.1 °C 979.9 hPa East 9.7 km/h 11.3 km/h 98 % 1.02 mm 0 W/m2
01:05 6.3 °C 6.1 °C 979.9 hPa ESE 9.7 km/h 14.5 km/h 98 % 0 mm 0 W/m2
01:10 6.3 °C 6.1 °C 979.9 hPa ESE 9.7 km/h 16.1 km/h 98 % 0 mm 0 W/m2
01:15 6.3 °C 6.1 °C 979.9 hPa ESE 11.3 km/h 16.1 km/h 98 % 0 mm 0 W/m2
01:25 6.3 °C 6.1 °C 979.9 hPa ENE 9.7 km/h 14.5 km/h 98 % 0 mm 0 W/m2
01:30 6.3 °C 6.1 °C 979.9 hPa ESE 9.7 km/h 9.7 km/h 98 % 0 mm 0 W/m2
01:35 6.3 °C 6.1 °C 979.9 hPa ESE 9.7 km/h 11.3 km/h 98 % 0 mm 0 W/m2
01:45 6.4 °C 6.1 °C 979.9 hPa ESE 9.7 km/h 14.5 km/h 98 % 0 mm 0 W/m2
01:50 6.4 °C 6.1 °C 979.9 hPa ESE 11.3 km/h 16.1 km/h 98 % 0 mm 0 W/m2
01:55 6.4 °C 6.1 °C 979.9 hPa ESE 11.3 km/h 16.1 km/h 98 % 0 mm 0 W/m2
02:00 6.4 °C 6.1 °C 979.9 hPa SE 11.3 km/h 11.3 km/h 98 % 0 mm 0 W/m2
02:10 6.4 °C 6.2 °C 979.9 hPa East 9.7 km/h 14.5 km/h 98 % 0 mm 0 W/m2
02:15 6.4 °C 6.1 °C 979.9 hPa ESE 9.7 km/h 14.5 km/h 98 % 0 mm 0 W/m2
02:20 6.4 °C 6.2 °C 979.9 hPa East 9.7 km/h 14.5 km/h 98 % 0 mm 0 W/m2
02:25 6.4 °C 6.2 °C 979.9 hPa ESE 9.7 km/h 14.5 km/h 98 % 0 mm 0 W/m2
02:30 6.4 °C 6.2 °C 979.9 hPa ESE 11.3 km/h 11.3 km/h 98 % 0 mm 0 W/m2
02:35 6.4 °C 6.1 °C 979.9 hPa ESE 11.3 km/h 14.5 km/h 98 % 0 mm 0 W/m2
02:45 6.4 °C 6.2 °C 979.9 hPa East 9.7 km/h 14.5 km/h 98 % 0 mm 0 W/m2
02:50 6.4 °C 6.2 °C 980.2 hPa East 9.7 km/h 14.5 km/h 98 % 0 mm 0 W/m2
02:55 6.4 °C 6.1 °C 980.2 hPa ESE 11.3 km/h 14.5 km/h 98 % 0 mm 0 W/m2
03:00 6.4 °C 6.1 °C 979.9 hPa ESE 11.3 km/h 11.3 km/h 98 % 0 mm 0 W/m2
03:05 6.4 °C 6.1 °C 980.2 hPa ESE 11.3 km/h 14.5 km/h 98 % 0 mm 0 W/m2
03:15 6.4 °C 6.1 °C 980.2 hPa ESE 11.3 km/h 14.5 km/h 98 % 0 mm 0 W/m2
03:20 6.4 °C 6.1 °C 980.2 hPa ENE 11.3 km/h 11.3 km/h 98 % 0 mm 0 W/m2
03:25 6.4 °C 6.2 °C 980.2 hPa ESE 11.3 km/h 12.9 km/h 98 % 0 mm 0 W/m2
03:30 6.4 °C 6.2 °C 980.2 hPa ESE 11.3 km/h 11.3 km/h 98 % 0 mm 0 W/m2
03:35 6.4 °C 6.2 °C 980.2 hPa East 11.3 km/h 14.5 km/h 98 % 0 mm 0 W/m2
03:40 6.4 °C 6.1 °C 980.2 hPa ESE 9.7 km/h 14.5 km/h 98 % 0 mm 0 W/m2
03:50 6.4 °C 6.1 °C 980.2 hPa ESE 11.3 km/h 14.5 km/h 98 % 0 mm 0 W/m2
03:55 6.4 °C 6.1 °C 980.2 hPa ESE 11.3 km/h 14.5 km/h 98 % 0 mm 0 W/m2
04:00 6.4 °C 6.1 °C 980.2 hPa ESE 9.7 km/h 14.5 km/h 98 % 0 mm 0 W/m2
04:05 6.4 °C 6.1 °C 980.2 hPa East 11.3 km/h 14.5 km/h 98 % 0 mm 0 W/m2
04:10 6.4 °C 6.2 °C 980.2 hPa ESE 9.7 km/h 14.5 km/h 98 % 0 mm 0 W/m2
04:20 6.4 °C 6.2 °C 980.2 hPa ESE 11.3 km/h 11.3 km/h 98 % 0 mm 0 W/m2
04:25 6.4 °C 6.2 °C 980.2 hPa SE 11.3 km/h 14.5 km/h 98 % 0 mm 0 W/m2
04:30 6.4 °C 6.1 °C 980.2 hPa ESE 11.3 km/h 14.5 km/h 98 % 0 mm 0 W/m2
04:35 6.4 °C 6.2 °C 980.2 hPa SE 9.7 km/h 14.5 km/h 98 % 0 mm 0 W/m2
04:40 6.4 °C 6.1 °C 980.2 hPa ESE 9.7 km/h 14.5 km/h 98 % 0 mm 0 W/m2
04:45 6.4 °C 6.2 °C 980.2 hPa ESE 8 km/h 14.5 km/h 98 % 0 mm 0 W/m2
04:55 6.4 °C 6.2 °C 980.2 hPa ESE 9.7 km/h 14.5 km/h 98 % 0 mm 0 W/m2
05:00 6.4 °C 6.1 °C 980.2 hPa ESE 9.7 km/h 9.7 km/h 98 % 0 mm 0 W/m2
05:05 6.4 °C 6.2 °C 980.2 hPa ESE 8 km/h 14.5 km/h 98 % 0 mm 0 W/m2
05:10 6.4 °C 6.1 °C 980.6 hPa ESE 6.4 km/h 6.4 km/h 98 % 0 mm 0 W/m2
05:15 6.4 °C 6.1 °C 980.6 hPa East 4.8 km/h 8 km/h 98 % 0 mm 0 W/m2
05:25 6.4 °C 6.1 °C 980.6 hPa East 6.4 km/h 14.5 km/h 98 % 0 mm 0 W/m2
05:30 6.4 °C 6.1 °C 980.6 hPa East 6.4 km/h 14.5 km/h 98 % 0 mm 0 W/m2
05:35 6.4 °C 6.1 °C 980.6 hPa ESE 8 km/h 14.5 km/h 98 % 0 mm 0 W/m2
05:40 6.3 °C 6.1 °C 980.6 hPa ESE 6.4 km/h 14.5 km/h 98 % 0 mm 0 W/m2
05:45 6.3 °C 6.1 °C 980.6 hPa East 4.8 km/h 14.5 km/h 98 % 0 mm 0 W/m2
05:55 6.3 °C 6.1 °C 980.9 hPa ENE 4.8 km/h 14.5 km/h 98 % 0 mm 0 W/m2
06:00 6.3 °C 6.1 °C 980.9 hPa ESE 6.4 km/h 14.5 km/h 98 % 0 mm 0 W/m2
06:05 6.3 °C 6.1 °C 980.9 hPa ESE 6.4 km/h 14.5 km/h 98 % 0 mm 0 W/m2
06:15 6.3 °C 6.1 °C 980.9 hPa ESE 6.4 km/h 14.5 km/h 98 % 0 mm 0 W/m2
06:20 6.4 °C 6.1 °C 980.9 hPa ESE 6.4 km/h 14.5 km/h 98 % 0 mm 0 W/m2
06:25 6.4 °C 6.1 °C 980.9 hPa SE 6.4 km/h 14.5 km/h 98 % 0 mm 0 W/m2
06:35 6.4 °C 6.1 °C 981.3 hPa SE 6.4 km/h 14.5 km/h 98 % 0 mm 0 W/m2
06:40 6.4 °C 6.2 °C 981.3 hPa ESE 4.8 km/h 4.8 km/h 98 % 0 mm 0 W/m2
06:45 6.4 °C 6.2 °C 981.3 hPa ESE 4.8 km/h 14.5 km/h 98 % 0 mm 0 W/m2
06:50 6.4 °C 6.3 °C 981.3 hPa ESE 4.8 km/h 14.5 km/h 99 % 0 mm 0 W/m2
06:55 6.4 °C 6.3 °C 981.3 hPa SSE 4.8 km/h 14.5 km/h 99 % 0 mm 0 W/m2
07:05 6.5 °C 6.3 °C 981.6 hPa ESE 3.2 km/h 14.5 km/h 99 % 0 mm 0 W/m2
07:10 6.5 °C 6.3 °C 981.6 hPa ESE 3.2 km/h 3.2 km/h 99 % 0 mm 0 W/m2
07:15 6.5 °C 6.3 °C 981.6 hPa ESE 3.2 km/h 6.4 km/h 99 % 0 mm 0 W/m2
07:20 6.5 °C 6.3 °C 981.6 hPa ESE 3.2 km/h 3.2 km/h 99 % 0 mm 0 W/m2
07:25 6.5 °C 6.3 °C 981.6 hPa ESE 3.2 km/h 14.5 km/h 99 % 0 mm 0 W/m2
07:30 6.5 °C 6.3 °C 981.6 hPa East 1.6 km/h 14.5 km/h 99 % 0 mm 0 W/m2
07:40 6.5 °C 6.3 °C 981.9 hPa ESE 1.6 km/h 14.5 km/h 99 % 0 mm 0 W/m2
07:45 6.5 °C 6.3 °C 981.9 hPa East 1.6 km/h 14.5 km/h 99 % 0 mm 0 W/m2
07:50 6.5 °C 6.3 °C 981.9 hPa ESE 3.2 km/h 3.2 km/h 99 % 0 mm 0 W/m2
07:55 6.5 °C 6.3 °C 981.9 hPa ESE 3.2 km/h 4.8 km/h 99 % 0 mm 0 W/m2
08:00 6.5 °C 6.3 °C 981.9 hPa East 1.6 km/h 1.6 km/h 99 % 0 mm 0 W/m2
08:10 6.6 °C 6.4 °C 981.9 hPa East 1.6 km/h 14.5 km/h 99 % 0 mm 0 W/m2
08:15 6.6 °C 6.4 °C 981.9 hPa East 1.6 km/h 14.5 km/h 99 % 0 mm 0 W/m2
08:20 6.6 °C 6.4 °C 982.3 hPa ESE 1.6 km/h 14.5 km/h 99 % 0 mm 0 W/m2
08:25 6.6 °C 6.4 °C 982.3 hPa ESE 3.2 km/h 14.5 km/h 99 % 0 mm 0 W/m2
08:30 6.6 °C 6.4 °C 982.3 hPa ESE 3.2 km/h 3.2 km/h 99 % 0 mm 0 W/m2
08:35 6.6 °C 6.4 °C 982.3 hPa ESE 3.2 km/h 14.5 km/h 99 % 0 mm 0 W/m2
08:45 6.6 °C 6.4 °C 982.6 hPa ESE 1.6 km/h 14.5 km/h 99 % 0 mm 0 W/m2
08:50 6.6 °C 6.4 °C 982.6 hPa ESE 1.6 km/h 1.6 km/h 99 % 0 mm 7 W/m2
08:55 6.6 °C 6.4 °C 982.6 hPa ESE 1.6 km/h 3.2 km/h 99 % 0 mm 11 W/m2
09:00 6.7 °C 6.5 °C 982.6 hPa ESE 1.6 km/h 1.6 km/h 99 % 0 mm 9 W/m2
09:05 6.7 °C 6.5 °C 982.6 hPa East 3.2 km/h 3.2 km/h 99 % 0 mm 11 W/m2
09:15 6.7 °C 6.6 °C 983 hPa ESE 1.6 km/h 14.5 km/h 99 % 0 mm 9 W/m2
09:20 6.7 °C 6.6 °C 983 hPa ESE 1.6 km/h 1.6 km/h 99 % 0 mm 7 W/m2
09:25 6.7 °C 6.6 °C 983 hPa ENE 1.6 km/h 14.5 km/h 99 % 0 mm 9 W/m2
09:30 6.7 °C 6.6 °C 983 hPa East 1.6 km/h 14.5 km/h 99 % 0 mm 9 W/m2
09:35 6.7 °C 6.5 °C 983.3 hPa ESE 1.6 km/h 14.5 km/h 99 % 0 mm 9 W/m2
09:40 6.7 °C 6.5 °C 983.3 hPa East 1.6 km/h 1.6 km/h 99 % 0 mm 11 W/m2
09:50 6.7 °C 6.5 °C 983.3 hPa East 1.6 km/h 14.5 km/h 99 % 0 mm 19 W/m2
09:55 6.7 °C 6.6 °C 983.6 hPa East 1.6 km/h 14.5 km/h 99 % 0 mm 19 W/m2
10:00 6.7 °C 6.6 °C 983.6 hPa ENE 1.6 km/h 1.6 km/h 99 % 0 mm 19 W/m2
10:05 6.7 °C 6.6 °C 983.6 hPa ESE 1.6 km/h 14.5 km/h 99 % 0 mm 18 W/m2
10:15 6.8 °C 6.6 °C 983.6 hPa ENE 1.6 km/h 14.5 km/h 99 % 0 mm 19 W/m2
10:20 6.8 °C 6.6 °C 983.6 hPa ESE 1.6 km/h 14.5 km/h 99 % 0 mm 21 W/m2
10:25 6.8 °C 6.6 °C 983.6 hPa East 3.2 km/h 14.5 km/h 99 % 0 mm 18 W/m2
10:35 6.8 °C 6.6 °C 984 hPa ENE 1.6 km/h 14.5 km/h 99 % 0 mm 19 W/m2
10:40 6.8 °C 6.6 °C 984 hPa ENE 1.6 km/h 1.6 km/h 99 % 0 mm 21 W/m2
10:45 6.8 °C 6.6 °C 984 hPa East 1.6 km/h 14.5 km/h 99 % 0 mm 25 W/m2
10:55 6.8 °C 6.7 °C 984 hPa ESE 1.6 km/h 14.5 km/h 99 % 0 mm 21 W/m2
11:00 6.9 °C 6.7 °C 984 hPa ESE 1.6 km/h 14.5 km/h 99 % 0 mm 11 W/m2
11:05 6.9 °C 6.7 °C 984 hPa SE 1.6 km/h 14.5 km/h 99 % 0 mm 21 W/m2
11:10 6.9 °C 6.7 °C 984 hPa ESE 1.6 km/h 14.5 km/h 99 % 16 mm 54 W/m2
11:15 6.9 °C 6.7 °C 984 hPa ENE 1.6 km/h 14.5 km/h 99 % 4.32 mm 46 W/m2
11:20 6.9 °C 6.8 °C 984 hPa East 1.6 km/h 14.5 km/h 99 % 2.29 mm 35 W/m2
11:30 6.9 °C 6.7 °C 984 hPa ESE 6.4 km/h 14.5 km/h 99 % 1.02 mm 21 W/m2
11:35 6.9 °C 6.7 °C 984 hPa ESE 8 km/h 14.5 km/h 99 % 0 mm 30 W/m2
11:40 6.9 °C 6.7 °C 984 hPa ESE 6.4 km/h 14.5 km/h 99 % 0 mm 42 W/m2
11:45 6.9 °C 6.7 °C 984 hPa ESE 4.8 km/h 14.5 km/h 99 % 0 mm 47 W/m2
12:00 7.1 °C 6.9 °C 984 hPa East 3.2 km/h 3.2 km/h 99 % 1.27 mm 109 W/m2
12:05 7.1 °C 6.9 °C 984 hPa ESE 3.2 km/h 14.5 km/h 99 % 1.27 mm 74 W/m2
12:10 7.2 °C 7 °C 984 hPa SE 3.2 km/h 3.2 km/h 99 % 1.27 mm 65 W/m2
12:15 7.2 °C 7 °C 984 hPa ESE 3.2 km/h 6.4 km/h 99 % 0 mm 60 W/m2
12:20 7.2 °C 7.1 °C 984 hPa ESE 3.2 km/h 14.5 km/h 99 % 0 mm 47 W/m2
12:25 7.2 °C 7 °C 984 hPa East 4.8 km/h 14.5 km/h 99 % 0 mm 39 W/m2
12:35 7.1 °C 6.9 °C 984 hPa ESE 4.8 km/h 14.5 km/h 99 % 0 mm 28 W/m2
12:40 7.1 °C 6.9 °C 984 hPa East 4.8 km/h 14.5 km/h 99 % 0 mm 33 W/m2
12:45 7.1 °C 6.9 °C 984.3 hPa SE 4.8 km/h 14.5 km/h 99 % 0 mm 49 W/m2
12:50 7.1 °C 6.9 °C 984.3 hPa East 3.2 km/h 3.2 km/h 99 % 0 mm 49 W/m2
12:55 7.2 °C 7 °C 984.3 hPa ESE 3.2 km/h 4.8 km/h 99 % 0 mm 44 W/m2
13:05 7.2 °C 7 °C 984.3 hPa ESE 1.6 km/h 14.5 km/h 99 % 0 mm 69 W/m2
13:10 7.3 °C 7.1 °C 984.3 hPa ESE 1.6 km/h 1.6 km/h 99 % 0 mm 42 W/m2
13:15 7.3 °C 7.1 °C 984.3 hPa East 1.6 km/h 14.5 km/h 99 % 0 mm 35 W/m2
13:20 7.3 °C 7.1 °C 984.3 hPa ENE 3.2 km/h 14.5 km/h 99 % 0 mm 28 W/m2
13:25 7.2 °C 7.1 °C 984.3 hPa East 3.2 km/h 14.5 km/h 99 % 0 mm 23 W/m2
13:30 7.2 °C 7 °C 984.3 hPa East 3.2 km/h 3.2 km/h 99 % 0 mm 19 W/m2
13:40 7.1 °C 6.9 °C 984.3 hPa ESE 1.6 km/h 14.5 km/h 99 % 0 mm 21 W/m2
13:45 7.1 °C 6.8 °C 984.3 hPa ENE 1.6 km/h 14.5 km/h 98 % 0 mm 26 W/m2
13:50 7.1 °C 6.8 °C 984.3 hPa ESE 1.6 km/h 1.6 km/h 98 % 0 mm 21 W/m2
13:55 7.1 °C 6.8 °C 984.3 hPa East 1.6 km/h 14.5 km/h 98 % 0 mm 23 W/m2
14:00 7.1 °C 6.9 °C 984.3 hPa ESE 1.6 km/h 14.5 km/h 99 % 0 mm 18 W/m2
14:10 7.1 °C 6.9 °C 984.3 hPa East 1.6 km/h 1.6 km/h 99 % 0 mm 18 W/m2
14:15 7.1 °C 6.9 °C 984.3 hPa East 1.6 km/h 14.5 km/h 99 % 0 mm 32 W/m2
14:20 7.1 °C 6.9 °C 984.3 hPa ESE 1.6 km/h 14.5 km/h 99 % 0 mm 25 W/m2
14:30 7.2 °C 7 °C 984.6 hPa East 1.6 km/h 1.6 km/h 99 % 0 mm 19 W/m2
14:35 7.2 °C 7.1 °C 984.6 hPa ESE 1.6 km/h 14.5 km/h 99 % 0 mm 32 W/m2
14:40 7.2 °C 7.1 °C 984.6 hPa East 1.6 km/h 1.6 km/h 99 % 0 mm 39 W/m2
14:50 7.3 °C 7.1 °C 984.6 hPa East 1.6 km/h 14.5 km/h 99 % 0 mm 32 W/m2
14:55 7.3 °C 7.1 °C 984.6 hPa NE 1.6 km/h 14.5 km/h 99 % 0 mm 30 W/m2
15:00 7.2 °C 7.1 °C 984.6 hPa ENE 1.6 km/h 1.6 km/h 99 % 0 mm 32 W/m2
15:05 7.2 °C 7.1 °C 985 hPa ESE 1.6 km/h 14.5 km/h 99 % 0 mm 28 W/m2
15:10 7.2 °C 7.1 °C 985 hPa East 1.6 km/h 14.5 km/h 99 % 0 mm 30 W/m2
15:20 7.2 °C 7.1 °C 985 hPa Calm   14.5 km/h 99 % 0 mm 30 W/m2
15:25 7.3 °C 7.1 °C 985 hPa Calm   14.5 km/h 99 % 0 mm 25 W/m2
15:30 7.3 °C 7.1 °C 985.3 hPa East 1.6 km/h 14.5 km/h 99 % 0 mm 18 W/m2
15:35 7.2 °C 7.1 °C 985.3 hPa East 1.6 km/h 14.5 km/h 99 % 0 mm 12 W/m2
15:40 7.2 °C 7.1 °C 985.3 hPa ENE 1.6 km/h 14.5 km/h 99 % 0 mm 7 W/m2
15:50 7.1 °C 6.9 °C 985.7 hPa East 3.2 km/h 3.2 km/h 99 % 0 mm 5 W/m2
15:55 7.1 °C 6.9 °C 985.7 hPa ENE 1.6 km/h 14.5 km/h 99 % 0 mm 0 W/m2
16:00 7.1 °C 6.9 °C 985.7 hPa East 1.6 km/h 1.6 km/h 99 % 0 mm 0 W/m2
16:05 7.1 °C 6.8 °C 985.7 hPa East 1.6 km/h 14.5 km/h 98 % 0 mm 0 W/m2
16:10 7 °C 6.7 °C 985.7 hPa ENE 1.6 km/h 1.6 km/h 98 % 0 mm 0 W/m2
16:15 7 °C 6.7 °C 985.7 hPa Calm   14.5 km/h 98 % 0 mm 0 W/m2
16:25 7 °C 6.7 °C 986 hPa Calm   14.5 km/h 98 % 0 mm 0 W/m2
16:30 6.9 °C 6.7 °C 986 hPa Calm   14.5 km/h 98 % 0 mm 0 W/m2
16:35 6.9 °C 6.7 °C 986 hPa ENE 1.6 km/h 14.5 km/h 98 % 0 mm 0 W/m2
16:40 6.9 °C 6.7 °C 986 hPa ENE 1.6 km/h 1.6 km/h 98 % 0 mm 0 W/m2
16:45 6.9 °C 6.6 °C 986 hPa Calm   14.5 km/h 98 % 0 mm 0 W/m2
16:55 6.8 °C 6.6 °C 986.3 hPa Calm   14.5 km/h 98 % 0 mm 0 W/m2
17:00 6.8 °C 6.5 °C 986.3 hPa Calm   14.5 km/h 98 % 0 mm 0 W/m2
17:05 6.8 °C 6.5 °C 986.3 hPa Calm   14.5 km/h 98 % 0 mm 0 W/m2
17:10 6.7 °C 6.4 °C 986.3 hPa Calm   14.5 km/h 98 % 0 mm 0 W/m2
17:15 6.7 °C 6.4 °C 986.3 hPa Calm   14.5 km/h 98 % 0 mm 0 W/m2
17:20 6.6 °C 6.3 °C 986.3 hPa Calm   14.5 km/h 98 % 0 mm 0 W/m2
17:30 6.6 °C 6.3 °C 986.3 hPa Calm   14.5 km/h 98 % 0 mm 0 W/m2
17:35 6.6 °C 6.3 °C 986.7 hPa Calm   14.5 km/h 98 % 0 mm 0 W/m2
17:40 6.6 °C 6.3 °C 986.7 hPa Calm   14.5 km/h 98 % 0 mm 0 W/m2
17:45 6.7 °C 6.4 °C 986.7 hPa Calm   14.5 km/h 98 % 0 mm 0 W/m2
17:50 6.7 °C 6.4 °C 986.7 hPa Calm   14.5 km/h 98 % 0 mm 0 W/m2
18:00 6.8 °C 6.5 °C 987 hPa Calm   14.5 km/h 98 % 0 mm 0 W/m2
18:05 6.8 °C 6.5 °C 987 hPa Calm   14.5 km/h 98 % 0 mm 0 W/m2
18:10 6.8 °C 6.5 °C 987 hPa Calm   14.5 km/h 98 % 0 mm 0 W/m2
18:15 6.8 °C 6.7 °C 987 hPa Calm   14.5 km/h 99 % 0 mm 0 W/m2
18:25 6.8 °C 6.7 °C 987 hPa Calm   14.5 km/h 99 % 0 mm 0 W/m2
18:35 6.7 °C 6.4 °C 987.4 hPa Calm   14.5 km/h 98 % 0 mm 0 W/m2
18:45 6.7 °C 6.4 °C 987.4 hPa Calm   14.5 km/h 98 % 0 mm 0 W/m2
18:50 6.7 °C 6.4 °C 987.4 hPa Calm   14.5 km/h 98 % 0 mm 0 W/m2
18:55 6.7 °C 6.4 °C 987.4 hPa Calm   14.5 km/h 98 % 0 mm 0 W/m2
19:00 6.7 °C 6.4 °C 987.4 hPa Calm   14.5 km/h 98 % 0 mm 0 W/m2
19:10 6.6 °C 6.3 °C 987.7 hPa Calm   14.5 km/h 98 % 0 mm 0 W/m2
19:15 6.6 °C 6.3 °C 987.7 hPa Calm   14.5 km/h 98 % 0 mm 0 W/m2
19:20 6.6 °C 6.3 °C 987.7 hPa Calm   14.5 km/h 98 % 0 mm 0 W/m2
19:25 6.6 °C 6.3 °C 987.7 hPa Calm   14.5 km/h 98 % 0 mm 0 W/m2
19:30 6.6 °C 6.4 °C 987.7 hPa Calm   14.5 km/h 99 % 0 mm 0 W/m2
19:40 6.7 °C 6.5 °C 988 hPa Calm   14.5 km/h 99 % 0 mm 0 W/m2
19:45 6.7 °C 6.4 °C 988 hPa Calm   14.5 km/h 98 % 0 mm 0 W/m2
19:50 6.7 °C 6.4 °C 988 hPa Calm   14.5 km/h 98 % 0 mm 0 W/m2
19:55 6.7 °C 6.6 °C 988 hPa Calm   14.5 km/h 99 % 0 mm 0 W/m2
20:00 6.7 °C 6.6 °C 988 hPa Calm   14.5 km/h 99 % 0 mm 0 W/m2
20:05 6.8 °C 6.6 °C 988.4 hPa Calm   14.5 km/h 99 % 0 mm 0 W/m2
20:15 6.8 °C 6.7 °C 988.4 hPa Calm   14.5 km/h 99 % 0 mm 0 W/m2
20:20 6.8 °C 6.7 °C 988.4 hPa Calm   14.5 km/h 99 % 0 mm 0 W/m2
20:25 6.8 °C 6.7 °C 988.4 hPa Calm   14.5 km/h 99 % 0 mm 0 W/m2
20:30 6.8 °C 6.7 °C 988.4 hPa Calm   14.5 km/h 99 % 0 mm 0 W/m2
20:35 6.8 °C 6.7 °C 988.4 hPa Calm   14.5 km/h 99 % 0 mm 0 W/m2
20:45 6.8 °C 6.5 °C 988.7 hPa Calm   14.5 km/h 98 % 0 mm 0 W/m2
20:50 6.8 °C 6.5 °C 988.7 hPa Calm   14.5 km/h 98 % 0 mm 0 W/m2
20:55 6.7 °C 6.4 °C 988.7 hPa Calm   14.5 km/h 98 % 0 mm 0 W/m2
21:00 6.7 °C 6.4 °C 988.7 hPa Calm   14.5 km/h 98 % 0 mm 0 W/m2
21:05 6.7 °C 6.4 °C 988.7 hPa Calm   14.5 km/h 98 % 0 mm 0 W/m2
21:10 6.7 °C 6.4 °C 989.1 hPa Calm   14.5 km/h 98 % 0 mm 0 W/m2
21:20 6.7 °C 6.4 °C 989.1 hPa Calm   14.5 km/h 98 % 0 mm 0 W/m2
21:25 6.7 °C 6.4 °C 989.1 hPa Calm   14.5 km/h 98 % 0 mm 0 W/m2
21:30 6.7 °C 6.4 °C 989.1 hPa Calm   14.5 km/h 98 % 0 mm 0 W/m2
21:35 6.7 °C 6.4 °C 989.1 hPa Calm   14.5 km/h 98 % 0 mm 0 W/m2
21:40 6.7 °C 6.6 °C 989.1 hPa Calm   14.5 km/h 99 % 0 mm 0 W/m2
21:50 6.8 °C 6.6 °C 989.4 hPa Calm   14.5 km/h 99 % 0 mm 0 W/m2
21:55 6.8 °C 6.6 °C 989.4 hPa Calm   14.5 km/h 99 % 0 mm 0 W/m2
22:00 6.7 °C 6.6 °C 989.4 hPa Calm   14.5 km/h 99 % 0 mm 0 W/m2
22:05 6.7 °C 6.4 °C 989.7 hPa Calm   14.5 km/h 98 % 0 mm 0 W/m2
22:10 6.7 °C 6.4 °C 989.7 hPa Calm   14.5 km/h 98 % 0 mm 0 W/m2
22:15 6.7 °C 6.4 °C 989.7 hPa Calm   14.5 km/h 98 % 0 mm 0 W/m2
22:25 6.6 °C 6.3 °C 989.7 hPa Calm   14.5 km/h 98 % 0 mm 0 W/m2
22:30 6.6 °C 6.4 °C 989.7 hPa Calm   14.5 km/h 99 % 0 mm 0 W/m2
22:35 6.6 °C 6.4 °C 989.7 hPa Calm   14.5 km/h 99 % 0 mm 0 W/m2
22:45 6.7 °C 6.6 °C 989.7 hPa Calm   14.5 km/h 99 % 0 mm 0 W/m2
22:50 6.8 °C 6.6 °C 990.1 hPa Calm   14.5 km/h 99 % 0 mm 0 W/m2
22:55 6.7 °C 6.6 °C 990.1 hPa Calm   14.5 km/h 99 % 0 mm 0 W/m2
23:00 6.7 °C 6.4 °C 990.1 hPa Calm   14.5 km/h 98 % 0 mm 0 W/m2
23:10 6.6 °C 6.4 °C 990.1 hPa Calm   14.5 km/h 99 % 0 mm 0 W/m2
23:15 6.6 °C 6.4 °C 990.1 hPa Calm   14.5 km/h 99 % 0 mm 0 W/m2
23:20 6.6 °C 6.4 °C 990.1 hPa WNW 1.6 km/h 1.6 km/h 99 % 0 mm 0 W/m2
23:30 6.6 °C 6.4 °C 990.4 hPa Calm   14.5 km/h 99 % 0 mm 0 W/m2
23:35 6.6 °C 6.4 °C 990.4 hPa Calm   14.5 km/h 99 % 0 mm 0 W/m2
23:40 6.6 °C 6.4 °C 990.4 hPa Calm   14.5 km/h 99 % 0 mm 0 W/m2
23:45 6.7 °C 6.6 °C 990.4 hPa Calm   14.5 km/h 99 % 0 mm 0 W/m2
23:50 6.8 °C 6.7 °C 990.4 hPa North 1.6 km/h 1.6 km/h 99 % 0 mm 0 W/m2
23:55 6.9 °C 6.7 °C 990.4 hPa North 1.6 km/h 14.5 km/h 99 % 0 mm 0 W/m2
Delerius-Weather
Compliments of Weather Underground - 2 mb

Data updates at regular intervals.